,,,PA_Meas_PMT16A,,PR_Meas_QMR101_102,,RH_Meas_QMH101,,SR_Meas_QMS101,,TA_Meas_QMH101,,GenWind,,GenWind,
date,time,status,PA,status,PR,status,RH,status,SR,status,TA,status,DirAvg,status,SpdAvg,
2012-03-17, 00:00:04,VALID,1002.11,VALID,0,VALID,92.3171,VALID,0,VALID,25.2221,VALID,115,VALID,0.713672,
2012-03-17, 00:01:04,VALID,1002.14,VALID,0,VALID,91.9967,VALID,0,VALID,25.2007,VALID,138,VALID,0.795703,
2012-03-17, 00:02:04,VALID,1002.15,VALID,0,VALID,91.9051,VALID,0,VALID,25.1813,VALID,141,VALID,1.19883,
2012-03-17, 00:03:04,VALID,1002.19,VALID,0.5,VALID,91.8517,VALID,0,VALID,25.2007,VALID,123,VALID,0.786719,
2012-03-17, 00:04:04,VALID,1002.21,VALID,0,VALID,91.7907,VALID,0,VALID,25.2202,VALID,124,VALID,0.712891,
2012-03-17, 00:05:04,VALID,1002.18,VALID,0,VALID,91.4779,VALID,0,VALID,25.2007,VALID,121,VALID,0.726563,
2012-03-17, 00:06:04,VALID,1002.16,VALID,0,VALID,91.6305,VALID,0,VALID,25.2007,VALID,68,VALID,0.467187,
2012-03-17, 00:07:04,VALID,1002.13,VALID,0,VALID,91.7602,VALID,0,VALID,25.2027,VALID,30,VALID,0.658203,
2012-03-17, 00:08:04,VALID,1002.1,VALID,0,VALID,91.7525,VALID,0.0815089,VALID,25.1813,VALID,11,VALID,1.00195,
2012-03-17, 00:09:04,VALID,1002.08,VALID,0,VALID,91.8822,VALID,0,VALID,25.1618,VALID,18,VALID,0.891797,
2012-03-17, 00:10:04,VALID,1002.04,VALID,0,VALID,91.9814,VALID,0,VALID,25.1423,VALID,26,VALID,1.04609,
2012-03-17, 00:11:04,VALID,1002.01,VALID,0,VALID,92.2255,VALID,0,VALID,25.1229,VALID,8,VALID,1.15586,
2012-03-17, 00:12:04,VALID,1001.94,VALID,0,VALID,92.073,VALID,0,VALID,25.1053,VALID,24,VALID,1.19844,
2012-03-17, 00:13:04,VALID,1001.92,VALID,0,VALID,92.1264,VALID,0,VALID,25.1053,VALID,11,VALID,0.953906,
2012-03-17, 00:14:04,VALID,1001.94,VALID,0,VALID,92.2179,VALID,0,VALID,25.1053,VALID,8,VALID,0.832031,
2012-03-17, 00:15:04,VALID,1001.92,VALID,0,VALID,92.1569,VALID,0,VALID,25.0858,VALID,22,VALID,0.622266,
2012-03-17, 00:16:04,VALID,1001.91,VALID,0,VALID,92.1721,VALID,0,VALID,25.0663,VALID,37,VALID,0.189844,
2012-03-17, 00:17:04,VALID,1001.93,VALID,0,VALID,92.2027,VALID,0,VALID,25.0858,VALID,39,VALID,0.431641,
2012-03-17, 00:18:04,VALID,1001.94,VALID,0,VALID,92.1798,VALID,0,VALID,25.0663,VALID,110,VALID,0.557813,
2012-03-17, 00:19:04,VALID,1001.92,VALID,0,VALID,92.3171,VALID,0,VALID,25.045,VALID,110,VALID,0.457812,
2012-03-17, 00:20:04,VALID,1001.93,VALID,0,VALID,92.1492,VALID,0,VALID,25.0663,VALID,142,VALID,0.557813,
2012-03-17, 00:21:04,VALID,1001.98,VALID,0,VALID,92.2103,VALID,0,VALID,25.0663,VALID,214,VALID,0.846484,
2012-03-17, 00:22:04,VALID,1001.95,VALID,0,VALID,92.2484,VALID,0,VALID,25.045,VALID,217,VALID,0.594141,
2012-03-17, 00:23:04,VALID,1001.96,VALID,0,VALID,92.4544,VALID,0,VALID,25.045,VALID,217,VALID,0.186328,
2012-03-17, 00:24:04,VALID,1001.95,VALID,0,VALID,92.7519,VALID,0,VALID,25.0839,VALID,217,VALID,0,
2012-03-17, 00:25:04,VALID,1001.93,VALID,0,VALID,92.9426,VALID,0,VALID,25.1248,VALID,217,VALID,0,
2012-03-17, 00:26:04,VALID,1001.9,VALID,0,VALID,92.7214,VALID,0,VALID,25.1442,VALID,230,VALID,0.436328,
2012-03-17, 00:27:04,VALID,1001.89,VALID,0,VALID,92.6909,VALID,0,VALID,25.1248,VALID,317,VALID,0.348437,
2012-03-17, 00:28:04,VALID,1001.87,VALID,0,VALID,92.7214,VALID,0,VALID,25.1248,VALID,5,VALID,0.49375,
2012-03-17, 00:29:04,VALID,1001.84,VALID,0,VALID,92.7977,VALID,0,VALID,25.1248,VALID,10,VALID,0.724219,
2012-03-17, 00:30:04,VALID,1001.84,VALID,0,VALID,92.8282,VALID,0,VALID,25.1248,VALID,10,VALID,0.785937,
2012-03-17, 00:31:04,VALID,1001.79,VALID,0,VALID,92.8969,VALID,0,VALID,25.1442,VALID,12,VALID,0.494141,
2012-03-17, 00:32:04,VALID,1001.72,VALID,0,VALID,92.8816,VALID,0,VALID,25.0839,VALID,26,VALID,0.682031,
2012-03-17, 00:33:04,VALID,1001.66,VALID,0,VALID,92.9274,VALID,0,VALID,25.0644,VALID,26,VALID,0.412891,
2012-03-17, 00:34:04,VALID,1001.61,VALID,0,VALID,93.0266,VALID,0,VALID,25.0255,VALID,26,VALID,0.346875,
2012-03-17, 00:35:04,VALID,1001.59,VALID,0,VALID,93.0723,VALID,0,VALID,25.0255,VALID,26,VALID,0.506641,
2012-03-17, 00:36:04,VALID,1001.57,VALID,0.5,VALID,93.1639,VALID,0,VALID,25.006,VALID,26,VALID,0.414844,
2012-03-17, 00:37:04,VALID,1001.57,VALID,0,VALID,93.1944,VALID,0,VALID,24.9671,VALID,40,VALID,0.374219,
2012-03-17, 00:38:04,VALID,1001.59,VALID,0,VALID,93.2783,VALID,0,VALID,24.9866,VALID,40,VALID,0.00507812,
2012-03-17, 00:39:04,VALID,1001.56,VALID,0,VALID,93.2554,VALID,0,VALID,24.9671,VALID,40,VALID,0.150391,
2012-03-17, 00:40:04,VALID,1001.59,VALID,0,VALID,93.3394,VALID,0,VALID,24.9476,VALID,40,VALID,0,
2012-03-17, 00:41:04,VALID,1001.56,VALID,0,VALID,93.4233,VALID,0,VALID,24.9671,VALID,40,VALID,0,
2012-03-17, 00:42:04,VALID,1001.6,VALID,0,VALID,93.5148,VALID,0,VALID,25.0079,VALID,40,VALID,0,
2012-03-17, 00:43:04,VALID,1001.55,VALID,0,VALID,93.5453,VALID,0,VALID,24.9866,VALID,40,VALID,0.116797,
2012-03-17, 00:44:04,VALID,1001.55,VALID,0,VALID,93.4843,VALID,0,VALID,24.9671,VALID,40,VALID,0.580859,
2012-03-17, 00:45:04,VALID,1001.54,VALID,0,VALID,93.5606,VALID,0,VALID,24.9671,VALID,40,VALID,0.417188,
2012-03-17, 00:46:04,VALID,1001.52,VALID,0,VALID,93.5758,VALID,0,VALID,24.9885,VALID,40,VALID,0.395312,
2012-03-17, 00:47:04,VALID,1001.52,VALID,0,VALID,93.6521,VALID,0,VALID,24.9885,VALID,40,VALID,0.282422,
2012-03-17, 00:48:04,VALID,1001.49,VALID,0,VALID,93.6826,VALID,0,VALID,24.9671,VALID,40,VALID,0,
2012-03-17, 00:49:04,VALID,1001.46,VALID,0.5,VALID,93.6903,VALID,0,VALID,24.9476,VALID,1,VALID,0.119141,
2012-03-17, 00:50:04,VALID,1001.42,VALID,0,VALID,93.7208,VALID,0,VALID,24.9885,VALID,1,VALID,0,
2012-03-17, 00:51:04,VALID,1001.41,VALID,0,VALID,93.6903,VALID,0,VALID,24.9671,VALID,1,VALID,0,
2012-03-17, 00:52:04,VALID,1001.38,VALID,0,VALID,93.7361,VALID,0,VALID,25.0079,VALID,1,VALID,0.373047,
2012-03-17, 00:53:04,VALID,1001.39,VALID,0,VALID,93.7666,VALID,0,VALID,25.0079,VALID,1,VALID,0,
2012-03-17, 00:54:04,VALID,1001.4,VALID,0,VALID,93.7513,VALID,0,VALID,24.9671,VALID,1,VALID,0,
2012-03-17, 00:55:04,VALID,1001.41,VALID,0,VALID,93.7208,VALID,0,VALID,24.969,VALID,24,VALID,0.121875,
2012-03-17, 00:56:04,VALID,1001.42,VALID,0,VALID,93.7208,VALID,0,VALID,24.9282,VALID,35,VALID,0.194922,
2012-03-17, 00:57:04,VALID,1001.4,VALID,0,VALID,93.7361,VALID,0,VALID,24.9282,VALID,35,VALID,0.276953,
2012-03-17, 00:58:04,VALID,1001.45,VALID,0,VALID,93.8581,VALID,0,VALID,24.93,VALID,35,VALID,0.271094,
2012-03-17, 00:59:04,VALID,1001.46,VALID,0.5,VALID,93.942,VALID,0,VALID,24.9495,VALID,35,VALID,0.102344,
2012-03-17, 01:00:04,VALID,1001.5,VALID,0,VALID,93.9039,VALID,0,VALID,24.93,VALID,35,VALID,0,
2012-03-17, 01:01:04,VALID,1001.51,VALID,0,VALID,93.9115,VALID,0,VALID,24.93,VALID,35,VALID,0,
2012-03-17, 01:02:04,VALID,1001.49,VALID,0,VALID,93.9344,VALID,0,VALID,24.8892,VALID,35,VALID,0.135937,
2012-03-17, 01:03:04,VALID,1001.51,VALID,0,VALID,94.0259,VALID,0,VALID,24.8892,VALID,35,VALID,0,
2012-03-17, 01:04:04,VALID,1001.54,VALID,0,VALID,94.0641,VALID,0,VALID,24.9087,VALID,35,VALID,0,
2012-03-17, 01:05:04,VALID,1001.55,VALID,0,VALID,94.087,VALID,0,VALID,24.9087,VALID,35,VALID,0,
2012-03-17, 01:06:04,VALID,1001.54,VALID,0,VALID,94.1556,VALID,0,VALID,24.93,VALID,35,VALID,0.0429688,
2012-03-17, 01:07:04,VALID,1001.59,VALID,0,VALID,94.148,VALID,0,VALID,24.9087,VALID,35,VALID,0,
2012-03-17, 01:08:04,VALID,1001.57,VALID,0,VALID,94.1709,VALID,0,VALID,24.9282,VALID,35,VALID,0,
2012-03-17, 01:09:04,VALID,1001.6,VALID,0,VALID,94.2167,VALID,0,VALID,24.9495,VALID,35,VALID,0,
2012-03-17, 01:10:04,VALID,1001.59,VALID,0,VALID,94.209,VALID,0,VALID,24.9282,VALID,35,VALID,0,
2012-03-17, 01:11:04,VALID,1001.58,VALID,0.5,VALID,94.2472,VALID,0,VALID,24.969,VALID,35,VALID,0,
2012-03-17, 01:12:04,VALID,1001.57,VALID,0,VALID,94.2243,VALID,0,VALID,24.9476,VALID,35,VALID,0,
2012-03-17, 01:13:04,VALID,1001.56,VALID,0,VALID,94.2014,VALID,0,VALID,24.9476,VALID,35,VALID,0,
2012-03-17, 01:14:04,VALID,1001.56,VALID,0,VALID,94.2548,VALID,0,VALID,24.969,VALID,35,VALID,0,
2012-03-17, 01:15:04,VALID,1001.53,VALID,0,VALID,94.2243,VALID,0,VALID,24.969,VALID,35,VALID,0,
2012-03-17, 01:16:04,VALID,1001.5,VALID,0,VALID,94.2472,VALID,0,VALID,24.969,VALID,35,VALID,0,
2012-03-17, 01:17:04,VALID,1001.49,VALID,0,VALID,94.2167,VALID,0,VALID,24.9282,VALID,35,VALID,0,
2012-03-17, 01:18:04,VALID,1001.43,VALID,0,VALID,94.2624,VALID,0,VALID,24.9495,VALID,35,VALID,0,
2012-03-17, 01:19:04,VALID,1001.43,VALID,0,VALID,94.2319,VALID,0,VALID,24.93,VALID,35,VALID,0,
2012-03-17, 01:20:04,VALID,1001.42,VALID,0,VALID,94.2243,VALID,0,VALID,24.9106,VALID,35,VALID,0,
2012-03-17, 01:21:04,VALID,1001.37,VALID,0,VALID,94.209,VALID,0,VALID,24.8697,VALID,35,VALID,0,
2012-03-17, 01:22:04,VALID,1001.38,VALID,0,VALID,94.2624,VALID,0,VALID,24.8697,VALID,35,VALID,0.242188,
2012-03-17, 01:23:04,VALID,1001.37,VALID,0,VALID,94.2243,VALID,0,VALID,24.8503,VALID,35,VALID,0.267188,
2012-03-17, 01:24:04,VALID,1001.35,VALID,0,VALID,94.293,VALID,0,VALID,24.8716,VALID,35,VALID,0.00742187,
2012-03-17, 01:25:04,VALID,1001.34,VALID,0,VALID,94.2701,VALID,0,VALID,24.8308,VALID,35,VALID,0.0667969,
2012-03-17, 01:26:04,VALID,1001.32,VALID,0,VALID,94.2777,VALID,0,VALID,24.8308,VALID,35,VALID,0,
2012-03-17, 01:27:04,VALID,1001.3,VALID,0,VALID,94.3158,VALID,0,VALID,24.8522,VALID,35,VALID,0,
2012-03-17, 01:28:04,VALID,1001.3,VALID,0,VALID,94.354,VALID,0,VALID,24.8522,VALID,35,VALID,0,
2012-03-17, 01:29:04,VALID,1001.29,VALID,0,VALID,94.4455,VALID,0,VALID,24.8697,VALID,35,VALID,0,
2012-03-17, 01:30:04,VALID,1001.32,VALID,0,VALID,94.4303,VALID,0,VALID,24.9106,VALID,35,VALID,0,
2012-03-17, 01:31:04,VALID,1001.37,VALID,0,VALID,94.3845,VALID,0,VALID,24.8911,VALID,35,VALID,0,
2012-03-17, 01:32:04,VALID,1001.38,VALID,0,VALID,94.3769,VALID,0,VALID,24.8716,VALID,35,VALID,0,
2012-03-17, 01:33:04,VALID,1001.43,VALID,0,VALID,94.3998,VALID,0,VALID,24.8911,VALID,35,VALID,0,
2012-03-17, 01:34:04,VALID,1001.45,VALID,0,VALID,94.4303,VALID,0,VALID,24.8892,VALID,35,VALID,0,
2012-03-17, 01:35:04,VALID,1001.49,VALID,0,VALID,94.4608,VALID,0,VALID,24.93,VALID,35,VALID,0,
2012-03-17, 01:36:04,VALID,1001.49,VALID,0,VALID,94.4913,VALID,0,VALID,24.9087,VALID,35,VALID,0,
2012-03-17, 01:37:04,VALID,1001.54,VALID,0,VALID,94.5676,VALID,0,VALID,24.9671,VALID,325,VALID,0.540625,
2012-03-17, 01:38:04,VALID,1001.56,VALID,0,VALID,94.5295,VALID,0,VALID,24.9885,VALID,268,VALID,0.0113281,
2012-03-17, 01:39:04,VALID,1001.53,VALID,0,VALID,94.5066,VALID,0,VALID,24.9671,VALID,282,VALID,0.412109,
2012-03-17, 01:40:04,VALID,1001.58,VALID,0,VALID,94.3998,VALID,0,VALID,24.9282,VALID,283,VALID,0.576953,
2012-03-17, 01:41:04,VALID,1001.57,VALID,0,VALID,94.3235,VALID,0,VALID,24.9106,VALID,288,VALID,1.16523,
2012-03-17, 01:42:04,VALID,1001.56,VALID,0,VALID,94.209,VALID,0,VALID,24.8716,VALID,283,VALID,1.42109,
2012-03-17, 01:43:04,VALID,1001.56,VALID,0,VALID,94.2014,VALID,0,VALID,24.8503,VALID,291,VALID,1.77266,
2012-03-17, 01:44:04,VALID,1001.54,VALID,0,VALID,94.2777,VALID,0,VALID,24.8522,VALID,281,VALID,1.49297,
2012-03-17, 01:45:04,VALID,1001.54,VALID,0.5,VALID,94.3082,VALID,0,VALID,24.8716,VALID,293,VALID,0.744922,
2012-03-17, 01:46:04,VALID,1001.57,VALID,0,VALID,94.3082,VALID,0,VALID,24.8503,VALID,279,VALID,1.72344,
2012-03-17, 01:47:04,VALID,1001.53,VALID,0,VALID,94.3235,VALID,0,VALID,24.8716,VALID,267,VALID,1.23477,
2012-03-17, 01:48:04,VALID,1001.58,VALID,0,VALID,94.3616,VALID,0,VALID,24.8716,VALID,283,VALID,0.890625,
2012-03-17, 01:49:05,VALID,1001.55,VALID,0,VALID,94.3692,VALID,0,VALID,24.8716,VALID,303,VALID,0.977734,
2012-03-17, 01:50:05,VALID,1001.6,VALID,0,VALID,94.3921,VALID,0,VALID,24.8716,VALID,306,VALID,0.893359,
2012-03-17, 01:51:05,VALID,1001.62,VALID,0,VALID,94.3998,VALID,0,VALID,24.8716,VALID,286,VALID,0.727344,
2012-03-17, 01:52:05,VALID,1001.61,VALID,0,VALID,94.3387,VALID,0,VALID,24.8716,VALID,300,VALID,1.43945,
2012-03-17, 01:53:05,VALID,1001.56,VALID,0,VALID,94.3387,VALID,0,VALID,24.8503,VALID,308,VALID,1.62344,
2012-03-17, 01:54:05,VALID,1001.53,VALID,0,VALID,94.354,VALID,0,VALID,24.8484,VALID,339,VALID,0.400391,
2012-03-17, 01:55:05,VALID,1001.54,VALID,0,VALID,94.3692,VALID,0,VALID,24.8911,VALID,311,VALID,0.515625,
2012-03-17, 01:56:05,VALID,1001.55,VALID,0,VALID,94.3616,VALID,0,VALID,24.8716,VALID,289,VALID,0.380859,
2012-03-17, 01:57:05,VALID,1001.6,VALID,0.5,VALID,94.3387,VALID,0,VALID,24.8697,VALID,267,VALID,0.380078,
2012-03-17, 01:58:05,VALID,1001.63,VALID,0,VALID,94.3235,VALID,0,VALID,24.8503,VALID,226,VALID,0.873828,
2012-03-17, 01:59:05,VALID,1001.67,VALID,0,VALID,94.3311,VALID,0.0815089,VALID,24.8503,VALID,243,VALID,0.756641,
2012-03-17, 02:00:05,VALID,1001.71,VALID,0.5,VALID,94.3464,VALID,0,VALID,24.8716,VALID,303,VALID,0.441406,
2012-03-17, 02:01:05,VALID,1001.76,VALID,0,VALID,94.3464,VALID,0,VALID,24.8503,VALID,222,VALID,0.223828,
2012-03-17, 02:02:05,VALID,1001.74,VALID,0,VALID,94.2472,VALID,0,VALID,24.8113,VALID,205,VALID,1.46875,
2012-03-17, 02:03:05,VALID,1001.77,VALID,0,VALID,94.2319,VALID,0,VALID,24.8327,VALID,215,VALID,0.746875,
2012-03-17, 02:04:05,VALID,1001.78,VALID,0,VALID,94.2548,VALID,0,VALID,24.7937,VALID,280,VALID,0.536719,
2012-03-17, 02:05:05,VALID,1001.81,VALID,0,VALID,94.354,VALID,0,VALID,24.7919,VALID,302,VALID,0.298438,
2012-03-17, 02:06:05,VALID,1001.78,VALID,0,VALID,94.3464,VALID,0,VALID,24.8132,VALID,285,VALID,0.0921875,
2012-03-17, 02:07:05,VALID,1001.76,VALID,0,VALID,94.293,VALID,0,VALID,24.7724,VALID,315,VALID,0.25,
2012-03-17, 02:08:05,VALID,1001.74,VALID,0,VALID,94.087,VALID,0,VALID,24.714,VALID,295,VALID,1.00977,
2012-03-17, 02:09:05,VALID,1001.7,VALID,0,VALID,94.1328,VALID,0,VALID,24.714,VALID,338,VALID,0.389062,
2012-03-17, 02:10:05,VALID,1001.66,VALID,0,VALID,93.9802,VALID,0.0815089,VALID,24.675,VALID,12,VALID,0.707422,
2012-03-17, 02:11:05,VALID,1001.64,VALID,0,VALID,93.9497,VALID,0,VALID,24.6769,VALID,357,VALID,1.37812,
2012-03-17, 02:12:05,VALID,1001.63,VALID,0,VALID,93.8429,VALID,0,VALID,24.638,VALID,355,VALID,1.34531,
2012-03-17, 02:13:05,VALID,1001.64,VALID,0,VALID,93.7437,VALID,0,VALID,24.5972,VALID,356,VALID,1.15547,
2012-03-17, 02:14:05,VALID,1001.63,VALID,0,VALID,93.8505,VALID,0,VALID,24.6361,VALID,360,VALID,0.326172,
2012-03-17, 02:15:05,VALID,1001.61,VALID,0,VALID,93.7666,VALID,0,VALID,24.6166,VALID,334,VALID,1.19687,
2012-03-17, 02:16:05,VALID,1001.62,VALID,0,VALID,93.7895,VALID,0,VALID,24.5972,VALID,325,VALID,0.177734,
2012-03-17, 02:17:05,VALID,1001.62,VALID,0,VALID,93.8352,VALID,0,VALID,24.638,VALID,326,VALID,0.337891,
2012-03-17, 02:18:05,VALID,1001.59,VALID,0,VALID,93.8047,VALID,0,VALID,24.6166,VALID,268,VALID,0.415625,
2012-03-17, 02:19:05,VALID,1001.55,VALID,0,VALID,93.7971,VALID,0,VALID,24.638,VALID,306,VALID,0.783203,
2012-03-17, 02:20:05,VALID,1001.55,VALID,0,VALID,93.7437,VALID,0,VALID,24.638,VALID,296,VALID,0.512891,
2012-03-17, 02:21:05,VALID,1001.52,VALID,0,VALID,93.7742,VALID,0,VALID,24.6166,VALID,358,VALID,0.558203,
2012-03-17, 02:22:05,VALID,1001.55,VALID,0,VALID,93.7742,VALID,0,VALID,24.638,VALID,266,VALID,0.599219,
2012-03-17, 02:23:05,VALID,1001.54,VALID,0,VALID,93.7437,VALID,0,VALID,24.5972,VALID,254,VALID,0.327734,
2012-03-17, 02:24:05,VALID,1001.56,VALID,0,VALID,93.6979,VALID,0,VALID,24.599,VALID,284,VALID,0.870313,
2012-03-17, 02:25:05,VALID,1001.58,VALID,0,VALID,93.7895,VALID,0,VALID,24.6185,VALID,297,VALID,0.771875,
2012-03-17, 02:26:05,VALID,1001.59,VALID,0,VALID,93.8505,VALID,0,VALID,24.6166,VALID,282,VALID,0.261328,
2012-03-17, 02:27:05,VALID,1001.61,VALID,0,VALID,93.7132,VALID,0,VALID,24.6185,VALID,299,VALID,0.941797,
2012-03-17, 02:28:05,VALID,1001.63,VALID,0,VALID,93.7055,VALID,0,VALID,24.6185,VALID,293,VALID,1.21914,
2012-03-17, 02:29:05,VALID,1001.61,VALID,0,VALID,93.5148,VALID,0,VALID,24.599,VALID,292,VALID,1.48672,
2012-03-17, 02:30:05,VALID,1001.62,VALID,0,VALID,93.5911,VALID,0,VALID,24.599,VALID,324,VALID,0.978125,
2012-03-17, 02:31:05,VALID,1001.62,VALID,0,VALID,93.5072,VALID,0,VALID,24.5972,VALID,275,VALID,1.16719,
2012-03-17, 02:32:05,VALID,1001.66,VALID,0,VALID,93.6216,VALID,0,VALID,24.5972,VALID,277,VALID,0.477344,
2012-03-17, 02:33:05,VALID,1001.66,VALID,0,VALID,93.5301,VALID,0,VALID,24.6166,VALID,324,VALID,0.685156,
2012-03-17, 02:34:05,VALID,1001.63,VALID,0,VALID,93.3622,VALID,0,VALID,24.599,VALID,303,VALID,1.56367,
2012-03-17, 02:35:05,VALID,1001.65,VALID,0,VALID,93.5224,VALID,0,VALID,24.6166,VALID,284,VALID,0.869141,
2012-03-17, 02:36:05,VALID,1001.63,VALID,0,VALID,93.4385,VALID,0,VALID,24.6361,VALID,295,VALID,0.908984,
2012-03-17, 02:37:05,VALID,1001.62,VALID,0,VALID,93.4004,VALID,0,VALID,24.6166,VALID,285,VALID,1.17891,
2012-03-17, 02:38:05,VALID,1001.58,VALID,0,VALID,93.4156,VALID,0.0815089,VALID,24.6788,VALID,295,VALID,1.51719,
2012-03-17, 02:39:05,VALID,1001.59,VALID,0,VALID,93.408,VALID,0,VALID,24.6574,VALID,302,VALID,0.744531,
2012-03-17, 02:40:05,VALID,1001.61,VALID,0.5,VALID,93.3928,VALID,0,VALID,24.6166,VALID,290,VALID,0.913672,
2012-03-17, 02:41:05,VALID,1001.66,VALID,0,VALID,93.4996,VALID,0,VALID,24.6166,VALID,276,VALID,0.972656,
2012-03-17, 02:42:05,VALID,1001.7,VALID,0,VALID,93.5072,VALID,0,VALID,24.5972,VALID,292,VALID,0.879687,
2012-03-17, 02:43:05,VALID,1001.71,VALID,0,VALID,93.553,VALID,0.0815089,VALID,24.638,VALID,279,VALID,1.08008,
2012-03-17, 02:44:05,VALID,1001.76,VALID,0,VALID,93.4614,VALID,0,VALID,24.599,VALID,272,VALID,1.43555,
2012-03-17, 02:45:05,VALID,1001.71,VALID,0,VALID,93.4919,VALID,0,VALID,24.5777,VALID,292,VALID,1.27461,
2012-03-17, 02:46:05,VALID,1001.77,VALID,0,VALID,93.4996,VALID,0,VALID,24.5796,VALID,289,VALID,1.31055,
2012-03-17, 02:47:05,VALID,1001.79,VALID,0,VALID,93.4767,VALID,0,VALID,24.5601,VALID,260,VALID,1.52539,
2012-03-17, 02:48:05,VALID,1001.77,VALID,0.5,VALID,93.5148,VALID,0,VALID,24.5388,VALID,310,VALID,1.03164,
2012-03-17, 02:49:05,VALID,1001.77,VALID,0,VALID,93.5758,VALID,0,VALID,24.4998,VALID,299,VALID,1.21719,
2012-03-17, 02:50:05,VALID,1001.79,VALID,0,VALID,93.5301,VALID,0,VALID,24.5017,VALID,282,VALID,2.62344,
2012-03-17, 02:51:05,VALID,1001.83,VALID,0.5,VALID,93.7666,VALID,0,VALID,24.5017,VALID,348,VALID,0.580469,
2012-03-17, 02:52:05,VALID,1001.85,VALID,0,VALID,93.7055,VALID,0,VALID,24.4414,VALID,290,VALID,2.10117,
2012-03-17, 02:53:05,VALID,1001.82,VALID,0.5,VALID,93.4004,VALID,0,VALID,24.3849,VALID,287,VALID,3.89531,
2012-03-17, 02:54:05,VALID,1001.81,VALID,0,VALID,92.9579,VALID,0,VALID,24.2486,VALID,292,VALID,4.14375,
2012-03-17, 02:55:05,VALID,1001.78,VALID,0.5,VALID,93.3775,VALID,0.0815089,VALID,24.1494,VALID,305,VALID,0.973047,
2012-03-17, 02:56:05,VALID,1001.63,VALID,0,VALID,93.4767,VALID,0,VALID,24.1105,VALID,326,VALID,1.54375,
2012-03-17, 02:57:05,VALID,1001.6,VALID,0,VALID,93.6979,VALID,0,VALID,24.0521,VALID,331,VALID,1.24648,
2012-03-17, 02:58:05,VALID,1001.7,VALID,0.5,VALID,93.6826,VALID,0,VALID,23.9937,VALID,285,VALID,3.41367,
2012-03-17, 02:59:05,VALID,1001.75,VALID,0,VALID,93.9268,VALID,0,VALID,23.9548,VALID,294,VALID,1.38477,
2012-03-17, 03:00:05,VALID,1001.75,VALID,0,VALID,94.0031,VALID,0.0815089,VALID,23.9566,VALID,284,VALID,2.5375,
2012-03-17, 03:01:05,VALID,1001.72,VALID,0,VALID,94.0717,VALID,0,VALID,23.9371,VALID,283,VALID,2.44062,
2012-03-17, 03:02:05,VALID,1001.78,VALID,0,VALID,94.148,VALID,0,VALID,23.9371,VALID,302,VALID,1.67188,
2012-03-17, 03:03:05,VALID,1001.79,VALID,0,VALID,94.1862,VALID,0,VALID,23.8982,VALID,274,VALID,1.13594,
2012-03-17, 03:04:05,VALID,1001.83,VALID,0,VALID,94.1022,VALID,0,VALID,23.8575,VALID,285,VALID,2.00664,
2012-03-17, 03:05:05,VALID,1001.81,VALID,0,VALID,94.1709,VALID,0,VALID,23.8787,VALID,287,VALID,2.075,
2012-03-17, 03:06:05,VALID,1001.83,VALID,0,VALID,94.2396,VALID,0.0815089,VALID,23.838,VALID,290,VALID,1.30156,
2012-03-17, 03:07:05,VALID,1001.8,VALID,0,VALID,94.2624,VALID,0,VALID,23.8593,VALID,279,VALID,1.30273,
2012-03-17, 03:08:05,VALID,1001.79,VALID,0.5,VALID,94.3082,VALID,0,VALID,23.838,VALID,297,VALID,1.35312,
2012-03-17, 03:09:05,VALID,1001.77,VALID,0,VALID,94.293,VALID,0.0815089,VALID,23.8185,VALID,294,VALID,2.02031,
2012-03-17, 03:10:05,VALID,1001.75,VALID,0,VALID,94.2319,VALID,0,VALID,23.8185,VALID,292,VALID,2.57148,
2012-03-17, 03:11:05,VALID,1001.75,VALID,0,VALID,94.1862,VALID,0,VALID,23.838,VALID,294,VALID,2.52578,
2012-03-17, 03:12:05,VALID,1001.78,VALID,0,VALID,93.9573,VALID,0,VALID,23.838,VALID,291,VALID,4.25,
2012-03-17, 03:13:05,VALID,1001.84,VALID,0,VALID,93.9573,VALID,0,VALID,23.838,VALID,282,VALID,2.12266,
2012-03-17, 03:14:05,VALID,1001.9,VALID,0,VALID,93.9497,VALID,0,VALID,23.8575,VALID,288,VALID,2.32813,
2012-03-17, 03:15:05,VALID,1001.93,VALID,0,VALID,94.0641,VALID,0,VALID,23.8575,VALID,282,VALID,3.33711,
2012-03-17, 03:16:05,VALID,1001.99,VALID,0.5,VALID,94.0259,VALID,0.0815089,VALID,23.8769,VALID,282,VALID,1.58555,
2012-03-17, 03:17:05,VALID,1001.98,VALID,0,VALID,94.1099,VALID,0,VALID,23.8769,VALID,281,VALID,1.54414,
2012-03-17, 03:18:05,VALID,1001.97,VALID,0,VALID,94.1556,VALID,0,VALID,23.8769,VALID,301,VALID,1.63008,
2012-03-17, 03:19:05,VALID,1001.97,VALID,0,VALID,94.1709,VALID,0,VALID,23.8769,VALID,305,VALID,0.781641,
2012-03-17, 03:20:05,VALID,1001.98,VALID,0,VALID,94.1633,VALID,0,VALID,23.8556,VALID,315,VALID,1.86563,
2012-03-17, 03:21:05,VALID,1001.98,VALID,0,VALID,94.2167,VALID,0,VALID,23.8787,VALID,295,VALID,2.06367,
2012-03-17, 03:22:05,VALID,1002.01,VALID,0,VALID,94.3006,VALID,0,VALID,23.8769,VALID,291,VALID,1.71406,
2012-03-17, 03:23:05,VALID,1002,VALID,0.5,VALID,94.3387,VALID,0,VALID,23.8964,VALID,289,VALID,1.88945,
2012-03-17, 03:24:05,VALID,1002,VALID,0,VALID,94.3387,VALID,0,VALID,23.9371,VALID,299,VALID,1.77266,
2012-03-17, 03:25:05,VALID,1001.97,VALID,0,VALID,94.4074,VALID,0,VALID,23.9353,VALID,328,VALID,1.3043,
2012-03-17, 03:26:05,VALID,1001.99,VALID,0,VALID,94.4303,VALID,0,VALID,23.9761,VALID,272,VALID,1.40781,
2012-03-17, 03:27:05,VALID,1002.01,VALID,0,VALID,94.4455,VALID,0,VALID,23.9548,VALID,315,VALID,0.670703,
2012-03-17, 03:28:05,VALID,1001.96,VALID,0,VALID,94.4227,VALID,0,VALID,23.9955,VALID,295,VALID,2.92188,
2012-03-17, 03:29:05,VALID,1001.97,VALID,0,VALID,94.4455,VALID,0,VALID,23.9742,VALID,280,VALID,1.55469,
2012-03-17, 03:30:05,VALID,1002.04,VALID,0,VALID,94.4608,VALID,0,VALID,23.9742,VALID,288,VALID,2.24805,
2012-03-17, 03:31:05,VALID,1002.07,VALID,0.5,VALID,94.4761,VALID,0,VALID,23.9937,VALID,299,VALID,1.73555,
2012-03-17, 03:32:05,VALID,1002.08,VALID,0,VALID,94.4761,VALID,0,VALID,24.0168,VALID,297,VALID,1.58594,
2012-03-17, 03:33:05,VALID,1002.08,VALID,0,VALID,94.4837,VALID,0,VALID,23.9937,VALID,301,VALID,1.88008,
2012-03-17, 03:34:05,VALID,1002.07,VALID,0,VALID,94.5142,VALID,0,VALID,24.0132,VALID,295,VALID,1.68164,
2012-03-17, 03:35:05,VALID,1002.08,VALID,0.5,VALID,94.4913,VALID,0,VALID,24.0132,VALID,284,VALID,1.64492,
2012-03-17, 03:36:05,VALID,1002.08,VALID,0,VALID,94.4913,VALID,0,VALID,23.9937,VALID,295,VALID,1.50352,
2012-03-17, 03:37:05,VALID,1002.08,VALID,0.5,VALID,94.4913,VALID,0,VALID,24.015,VALID,297,VALID,2.05625,
2012-03-17, 03:38:05,VALID,1002.05,VALID,0,VALID,94.5295,VALID,0,VALID,23.9742,VALID,293,VALID,1.54531,
2012-03-17, 03:39:05,VALID,1002.02,VALID,0.5,VALID,94.5676,VALID,0,VALID,23.9937,VALID,300,VALID,1.74688,
2012-03-17, 03:40:05,VALID,1001.97,VALID,0,VALID,94.6286,VALID,0,VALID,23.9937,VALID,301,VALID,1.10703,
2012-03-17, 03:41:05,VALID,1001.96,VALID,0,VALID,94.6134,VALID,0,VALID,23.9937,VALID,300,VALID,2.12891,
2012-03-17, 03:42:05,VALID,1001.91,VALID,0.5,VALID,94.6057,VALID,0,VALID,23.9353,VALID,324,VALID,1.03047,
2012-03-17, 03:43:05,VALID,1001.94,VALID,0,VALID,94.5752,VALID,0,VALID,23.9353,VALID,305,VALID,1.71914,
2012-03-17, 03:44:05,VALID,1001.92,VALID,0,VALID,94.56,VALID,0,VALID,23.9159,VALID,284,VALID,1.58086,
2012-03-17, 03:45:05,VALID,1001.89,VALID,0,VALID,94.6057,VALID,0.0815089,VALID,23.8964,VALID,314,VALID,0.623438,
2012-03-17, 03:46:05,VALID,1001.89,VALID,0,VALID,94.5981,VALID,0.0815089,VALID,23.8769,VALID,301,VALID,2.22461,
2012-03-17, 03:47:05,VALID,1001.89,VALID,0,VALID,94.5752,VALID,0.0815089,VALID,23.8769,VALID,287,VALID,1.96289,